Timeline UpdatesTrip UpdatesNews PostsPvt PostsTravel TipsAdmin PostsConv PostsFollowed PostsChat RequestsBlog PostsPNR Posts

Disclaimer
Search
 
 
Tue Sep 16, 2014 12:56:13 ISTHomeTrainsΣChainsAtlasPNRForumGalleryNewsFAQTripsMembersLoginFeedback
No Recent News for this Train
Other Trains in the News **new
Latest...
-
Tue Aug 05, 2014 (01:25PM)
⇐ Return Journey: Train# 16508

16507/Bhagat Ki Kothi - Bangalore Express

Time-Table HAS CHANGED.
Sep 03 (6:09PM)
Change Departure Station:
Change Arrival Station:
Post a Train Travel TipPost a Train Travel Tip **new
Post a Comment/Question/Picture/VideoPost a Comment/Question/Picture/Video
Pantry/Catering
✓ Pantry Car Avbl
✓ Catering Avbl
RSA - Rake Sharing
Rake/Coach Composition
SLR-2; UR-3; SL-12; 3A-3; 2A-2 ;PC.total 23 coaches.Permanent 3AC from April 11 ex-Jodhpur.
Loco
Wdp-4 hubli shed
News    PNR    Forum    Time-Table    Availability    Fare Chart    Map    Arr/Dep History    Trips    Gallery    ΣChains    X/O    Timeline    
Travel Time: 8h 45m    8 halts    Distance: 446 km    Avg Speed: 50 km/hr
Type: Mail/Express
Zone: SWR/South Western
Departs @ 14:50 (Avg 3m late)
Platform# 7
    T S
Ahmedabad Junction/ADI 
Arrives @ 23:35 (Avg 1m early)
Platform# 7
    T S
Vasai Road/BSR 

8 halts. 82 intermediate Stations between Ahmedabad Junction and Vasai Road

Show ALL intermediate Stations  Show Old Time-Table

#CodeStation NameX/OArrivesAvgDepartsAvgHaltPFDay#KmSpeedElevZoneAddress
1BGKTBhagat Ki Kothi (3)  -05:40 05:35+0--1-456.449229mNWRJodhpur, Rajasthan
2LUNILuni Junction (3)  06:10+606:13+73m--1-428.163180mNWRLuni, Rajasthan
3PMYPali Marwar (2)  06:41 06:52+1606:43 06:54+172m--1-386.938221mNWRPali, Rajasthan
4MJMarwar Junction (4)  07:36 07:43+507:45+89 2m31-356.080267mNWRMarwar Junction, Rajasthan
5FAFalna (2)  08:34 08:35+1708:36 08:37+182m11-289.565282mNWRFalna, Rajasthan
6JWBJawai Bandh  08:51 08:52+2108:53 08:54+212m--1-273.369292mNWRPali, Rajasthan
7ABRAbu Road (3)X  10:06+2710:25+2119m--1-190.638264mNWRSirohi Dist, Rajasthan
8PNUPalanpur Junction (5)X  11:48+511:50+132m11-138.063216mWRPalanpur, Gujarat
9SIDSiddhpur  12:18+1512:20+152m--1-108.647136mWRState Highway 41, Gujarat
10MSHMahesana Junction (6)  13:05+1513:07+212m--1-73.05395mWRMehsana, Gujarat
11ADI»Ahmedabad Junction (12)»  14:30+714:50+320m710.05451mWRAhmedabad, Gujarat
12NDNadiad Junction (4)  15:41+2315:43+232m1145.66237mWRNadiad, Gujarat
13ANNDAnand Junction (6)X  16:01+2616:03+262m1164.05144mWRAnand, Gujarat
14BRCVadodara Junction (7)X  16:42 16:45+3016:52 16:55+3210m1199.88536mWRVadodara 390005, Gujarat
15BHBharuch Junction (5)  17:39 17:45+3417:41 17:47+272m41170.34619mWRBharuch, Gujarat
16STSurat (4)X  19:05+1319:15+1310m21229.65919mWRSurat 395001, Gujarat
17NVSNavsari (3)  19:45+2219:47+222m21259.26514mWRNavsari, Gujarat
18BLValsad (3)X  20:23+2220:25+252m31298.36615mWRValsad, Gujarat
19VAPIVapi (3)  20:49+2920:51+302m21324.54427mWRVapi, Gujarat
20BSR•Vasai Road (7)•X  23:35-123:40+45m71445.6537mWRVasai 401202, Maharashtra
21BIRDBhiwandi Road (4)X  00:11+1000:13+102m22472.92126mCRBhiwandi, Maharashtra
22KYNKalyan Junction (8)  01:08 01:05-301:10+62 5m62490.94810mCRKalyan 421301, Maharashtra
23KJTKarjat Junction (4)  02:08+602:10+102m12537.75257mCRKarjat, Maharashtra
24LNLLonavala (3)  02:58 02:43+303:00 02:45+62m12566.445623mCRLonavala 410401, Maharashtra
25PUNEPune Junction (6)X  04:10+404:20+1110m12630.051556mCRPune 411001, Maharashtra
26STRSatara (3)  07:10+3007:13+303m--2775.765637mCRSatara, Maharashtra
27KRDKarad (3)  08:08 08:07+3308:10+342 3m--2834.453597mCRDist- Satara., Maharashtra
28SLISangli (3)X  09:27+1109:30+153m32902.37559mCRSangli, Maharashtra
29MRJMiraj Junction (6)  10:30+010:35+05m12909.654554mCRMiraj 416410, Maharashtra
30GPBGhatprabha (2)  12:03+2912:05+302m--2989.143621mSWRGhatprabha, Karnataka
31BGMBelgaum (3)  13:25+3313:30+345m--21047.068752mSWRBelgaum 590001, Karnataka
32LDLonda Junction (3)  14:15+5114:17+532m--21098.334643mSWRLonda, Karnataka
33DWRDharwad (4)X  16:20+1616:25+155m--21168.818737mSWRDharwad 580001, Karnataka
34UBLHubli Junction (5)  17:30+017:40+310m121188.858640mSWRHubli - 580020, Karnataka
35HVRHaveri (3)  18:50 18:58+2318:52 19:00+252m--21263.970558mSWRHaveri, Karnataka
36RNRRanibennur (3)  19:26 19:28+3419:28 19:30+342m--21296.542583mSWRRanebennur, Karnataka
37HRRHarihar (3)X  20:05 20:03+2220:10 20:05+275 2m--21319.843553mSWRHarihar, Karnataka
38DVGDavangere (2)  20:24 20:23+2920:27 20:25+293 2m121332.667598mSWRDavanagere, Karnataka
39RRBBirur Junction (3)  22:08+3022:10+302m--21447.654802mSWRBirur, Karnataka
40ASKArsikere Junction (3)  23:00+2323:05+255m--21492.655816mSWRArsikere, Karnataka
41TTRTiptur (4)X  23:33+3523:35+382m--21518.138860mSWRTiptur, Karnataka
42TKTumkur (3)  01:28+1001:30+122m--31589.144823mSWRTumkur, Karnataka
43YPRYesvantpur Junction (6)  02:55 02:58+103:00+15 2m--31653.121919mSWRBengaluru 560022, Karnataka
44MWMMalleswaram (2)  03:08-03:10-2m--31655.934916mSWRBengaluru, Karnataka
45SBCBangalore City Junction (10)  03:15+0-831658.7-903mSWRBengaluru-560023, Karnataka
Scroll to Top
Scroll to Bottom